Date_and_time,latitude,longitude,wind_speed,RelWindDirFrom,WindDirFrom,air_pressure,air_temperature,relative_humidity,Temp,platform_speed_wrt_ground,air_pressure_at_mean_sea_level,platform_orientation
2019-09-24 23:50,52.1287916666667,-97.4906916666667,7.4,8.8,211,971.39,14.3,71,16.28,0.0,997.37,146.8
2019-09-25 00:00,52.1287916666667,-97.4906916666667,6.0,7.7,212,971.38,13.7,73,16.28,0.0,997.39,108.4
2019-09-25 00:10,52.1287916666667,-97.4906916666667,6.5,8.6,226,971.38,14.4,69,16.28,0.0,997.36,108.4
2019-09-25 00:20,52.1287916666667,-97.4906916666667,7.0,9.8,238,971.37,15.3,65,16.28,0.0,997.31,108.4
2019-09-25 00:30,52.12879,-97.4906933333333,7.3,11.0,239,971.34,14.8,66,16.27,0.0,997.37,108.4
2019-09-25 00:40,52.12879,-97.4906933333333,6.5,7.5,223,971.36,15.4,68,16.27,0.0,997.35,108.4
2019-09-25 00:50,52.12879,-97.4906916666667,6.2,7.3,214,971.35,14.1,76,16.28,0.0,997.46,108.4
2019-09-25 01:00,52.12879,-97.4906916666667,7.0,10.7,219,971.38,13.8,76,16.29,0.0,997.52,108.7
2019-09-25 01:10,52.1287883333333,-97.4906916666667,9.3,15.6,247,971.58,13.8,70,16.30,0.0,997.65,108.7
2019-09-25 01:20,52.1287883333333,-97.4906916666667,7.5,10.2,259,971.56,12.6,72,16.31,0.0,997.68,108.7
2019-09-25 01:30,52.1287883333333,-97.4907016666667,6.4,9.8,263,971.57,12.3,72,16.31,0.0,997.68,108.7
2019-09-25 01:40,52.12878,-97.4906866666667,5.5,7.5,256,971.59,12.1,72,16.31,0.0,997.72,108.7
2019-09-25 01:50,52.1287833333333,-97.4906916666667,4.6,6.4,245,971.55,13.2,68,16.31,0.0,997.66,108.7
2019-09-25 02:00,52.1287833333333,-97.4906916666667,3.2,4.8,244,971.50,13.1,66,16.29,0.0,997.58,343.8
2019-09-25 02:10,52.1287816666667,-97.4906916666667,4.6,8.0,247,971.47,13.3,63,16.28,0.0,997.49,343.8
2019-09-25 02:20,52.1287833333333,-97.4906916666667,6.7,8.8,244,971.43,13.4,61,16.26,0.0,997.47,343.8
2019-09-25 02:30,52.1287816666667,-97.4907033333333,7.6,9.2,239,971.41,14.1,61,16.24,0.0,997.39,343.8
2019-09-25 02:40,52.1287766666667,-97.4906883333333,7.6,10.5,242,971.35,13.9,61,16.23,0.0,997.39,343.8
2019-09-25 02:50,52.12878,-97.4906916666667,7.7,10.6,244,971.38,13.5,61,16.21,0.0,997.46,343.8
2019-09-25 03:00,52.12878,-97.4906933333333,8.2,11.0,242,971.38,13.5,60,16.20,0.0,997.46,360.0
2019-09-25 03:10,52.1287783333333,-97.4906933333333,8.2,10.6,242,971.36,13.7,61,16.19,0.0,997.49,360.0
2019-09-25 03:20,52.1287766666667,-97.490695,8.4,10.2,238,971.32,14.0,60,16.18,0.0,997.45,360.0
2019-09-25 03:30,52.1287766666667,-97.4906966666667,8.9,11.1,239,971.34,13.8,60,16.17,0.0,997.48,360.0
2019-09-25 03:40,52.1287766666667,-97.4906966666667,8.9,11.6,234,971.32,14.4,59,16.16,0.0,997.38,360.0
2019-09-25 03:50,52.1287766666667,-97.4906933333333,9.3,11.8,232,971.28,14.6,61,16.15,0.0,997.34,360.0
2019-09-25 04:00,52.1287766666667,-97.4906933333333,9.0,11.2,229,971.28,14.6,62,16.14,0.0,997.32,167.8
2019-09-25 04:10,52.1287766666667,-97.4906933333333,9.5,11.9,226,971.28,14.2,63,16.13,0.0,997.34,167.8
2019-09-25 04:20,52.1287766666667,-97.4906933333333,10.5,11.8,227,971.22,13.8,64,16.12,0.0,997.27,167.8
2019-09-25 04:30,52.1287766666667,-97.4906933333333,10.5,12.8,227,971.21,13.6,66,16.11,0.0,997.27,167.8
2019-09-25 04:40,52.1287783333333,-97.490695,10.5,13.8,227,971.15,13.3,69,16.09,0.0,997.24,167.8
2019-09-25 04:50,52.1287866666667,-97.490695,10.8,13.1,231,971.09,13.2,70,16.08,0.0,997.19,167.8
2019-09-25 05:00,52.12878,-97.4906916666667,11.8,15.5,228,971.03,13.1,72,16.07,0.0,997.12,360.0
2019-09-25 05:10,52.1287883333333,-97.4906916666667,10.6,13.4,232,971.04,13.1,73,16.06,0.0,997.12,360.0
2019-09-25 05:20,52.12878,-97.4906966666667,10.3,12.1,232,971.05,13.1,73,16.05,0.0,997.14,360.0
2019-09-25 05:30,52.12878,-97.4907,9.9,12.3,230,971.04,13.4,73,16.03,0.0,997.09,360.0
2019-09-25 05:40,52.1287816666667,-97.490695,8.8,11.7,238,970.99,12.9,75,16.02,0.0,997.05,360.0
2019-09-25 05:50,52.12878,-97.4906933333333,8.9,12.5,249,971.01,12.2,74,16.01,0.0,997.10,360.0
2019-09-25 06:00,52.1287816666667,-97.49069,9.5,12.9,259,971.03,12.0,73,16.01,0.0,997.15,0.0
2019-09-25 06:10,52.1287833333333,-97.4906916666667,10.3,14.1,269,971.03,12.3,71,16.00,0.0,997.16,0.0
2019-09-25 06:20,52.1287833333333,-97.4906916666667,16.1,20.4,283,970.96,13.2,67,16.00,0.0,997.06,0.0
2019-09-25 06:30,52.1287816666667,-97.49069,16.8,24.0,287,971.00,13.5,66,15.98,0.0,997.09,0.0
2019-09-25 06:40,52.1287866666667,-97.490685,17.0,23.1,289,971.01,13.5,67,15.95,0.0,997.11,0.0
2019-09-25 06:50,52.128785,-97.4906933333333,16.3,21.1,291,971.07,13.5,68,15.92,0.0,997.18,0.0
2019-09-25 07:00,52.1287816666667,-97.4906883333333,14.9,22.4,293,971.18,13.5,67,15.89,0.0,997.29,90.0
2019-09-25 07:10,52.1287816666667,-97.4906883333333,15.8,20.3,289,971.20,13.5,66,15.87,0.0,997.31,90.0
2019-09-25 07:20,52.1287816666667,-97.49069,16.4,21.0,286,971.29,13.4,67,15.87,0.0,997.39,90.0
2019-09-25 07:30,52.12878,-97.49069,15.6,22.0,286,971.35,13.3,67,15.86,0.0,997.48,90.0
2019-09-25 07:40,52.1287783333333,-97.49069,14.5,19.5,281,971.43,12.9,70,15.86,0.0,997.61,90.0
2019-09-25 07:50,52.1287783333333,-97.4906883333333,18.1,25.5,286,971.33,12.9,67,15.85,0.0,997.52,90.0
2019-09-25 08:00,52.1287783333333,-97.4906883333333,19.3,24.6,287,971.27,13.0,62,15.84,0.0,997.44,90.0
2019-09-25 08:10,52.1287783333333,-97.4906883333333,16.0,23.4,297,971.37,13.1,60,15.84,0.0,997.49,90.0
2019-09-25 08:20,52.1287783333333,-97.4906883333333,17.8,24.8,293,971.32,13.0,61,15.84,0.0,997.43,90.0
2019-09-25 08:30,52.1287783333333,-97.4906883333333,16.6,23.3,300,971.39,13.0,62,15.85,0.0,997.51,90.0
2019-09-25 08:40,52.1287783333333,-97.4906883333333,15.9,24.0,298,971.49,12.9,64,15.87,0.0,997.61,90.0
2019-09-25 08:50,52.1287783333333,-97.4906883333333,16.9,23.6,294,971.53,12.8,64,15.84,0.0,997.66,90.0
2019-09-25 09:00,52.1287783333333,-97.4906866666667,16.4,24.5,297,971.62,12.7,62,15.78,0.0,997.75,90.0
2019-09-25 09:10,52.12878,-97.4906866666667,17.4,24.6,294,971.58,12.6,61,15.78,0.0,997.73,90.0
2019-09-25 09:20,52.12878,-97.4906866666667,16.0,23.0,296,971.66,12.5,63,15.79,0.0,997.81,90.0
2019-09-25 09:30,52.12878,-97.4906866666667,16.4,25.2,295,971.76,12.4,64,15.75,0.0,997.94,90.0
2019-09-25 09:40,52.12878,-97.4906866666667,16.2,23.5,297,971.84,12.4,64,15.72,0.0,998.02,90.0
2019-09-25 09:50,52.12878,-97.4906883333333,15.4,24.6,300,971.98,12.3,65,15.71,0.0,998.16,90.0
2019-09-25 10:00,52.12878,-97.4906883333333,15.3,26.3,300,972.08,12.2,65,15.68,0.0,998.27,0.0
2019-09-25 10:10,52.12878,-97.4906883333333,15.9,22.4,295,972.08,12.1,66,15.68,0.0,998.28,0.0
2019-09-25 10:20,52.12878,-97.4906883333333,14.8,22.2,302,972.14,12.0,65,15.65,0.0,998.35,0.0
2019-09-25 10:30,52.12878,-97.4906883333333,12.9,20.1,303,972.25,11.9,64,15.65,0.0,998.47,0.0
2019-09-25 10:40,52.12878,-97.4906883333333,13.4,21.4,303,972.31,12.0,65,15.64,0.0,998.53,0.0
2019-09-25 10:50,52.12878,-97.4906883333333,13.0,21.4,304,972.37,11.9,66,15.64,0.0,998.60,0.0
2019-09-25 11:00,52.12878,-97.4906883333333,12.1,19.7,325,972.56,11.7,71,15.64,0.0,998.81,90.0
2019-09-25 11:10,52.12878,-97.4906883333333,14.0,22.8,318,972.63,11.4,70,15.63,0.0,998.90,90.0
2019-09-25 11:20,52.12878,-97.4906883333333,15.9,23.2,315,972.65,11.7,64,15.63,0.0,998.91,90.0
2019-09-25 11:30,52.1287816666667,-97.490685,16.3,29.6,311,972.69,11.8,59,15.62,0.0,998.95,90.0
2019-09-25 11:40,52.12878,-97.49069,15.3,22.2,305,972.76,11.9,57,15.56,0.0,999.02,90.0
2019-09-25 11:50,52.1287766666667,-97.49076,17.9,27.9,305,972.72,11.8,59,15.54,0.0,998.99,90.0
2019-09-25 12:00,52.1273083333333,-97.4917966666667,17.3,24.7,303,972.81,11.8,58,15.53,0.6,999.08,204.5
2019-09-25 12:10,52.1154816666667,-97.4703416666667,18.9,28.8,305,972.94,11.8,64,15.71,6.4,999.23,204.5
2019-09-25 12:20,52.1151133333333,-97.4571216666667,22.6,26.6,310,973.12,11.2,63,15.82,2.9,999.44,204.5
2019-09-25 12:30,52.1109283333333,-97.44377,18.0,23.5,307,973.13,11.1,63,15.81,3.3,999.46,204.5
2019-09-25 12:40,52.10738,-97.43,18.6,24.4,307,973.20,10.7,65,15.77,3.3,999.54,204.5
2019-09-25 12:50,52.1055,-97.41817,16.0,20.8,299,973.40,10.7,65,15.76,2.7,999.76,204.5
2019-09-25 13:00,52.1052716666667,-97.4168966666667,20.9,26.8,298,972.71,10.7,70,15.77,0.3,999.07,117.4
2019-09-25 13:10,52.1052066666667,-97.4169333333333,18.8,24.1,299,972.76,10.8,68,15.76,0.0,999.10,117.4
2019-09-25 13:20,52.1052,-97.4168383333333,22.1,30.1,298,972.45,10.9,70,15.75,0.0,998.77,117.4
2019-09-25 13:30,52.1029616666667,-97.4156716666667,25.6,31.8,302,972.30,10.9,70,15.74,0.8,998.61,117.4
2019-09-25 13:40,52.0801766666667,-97.3941033333333,16.8,28.5,286,973.62,13.3,63,15.73,9.5,999.86,117.4
2019-09-25 13:50,52.06423,-97.3536933333333,12.5,16.5,295,973.81,16.9,50,15.72,10.6,999.89,117.4
2019-09-25 14:00,52.046695,-97.3191283333333,14.4,17.7,289,973.83,18.9,46,15.65,9.9,999.82,127.8
2019-09-25 14:10,52.0300583333333,-97.2803883333333,12.9,18.8,289,973.82,17.1,55,15.62,10.5,999.92,127.8
2019-09-25 14:20,52.0199683333333,-97.2329583333333,12.8,18.1,306,973.76,12.6,68,15.62,11.1,1000.07,127.8
2019-09-25 14:30,52.0099433333333,-97.1850383333333,13.6,19.0,310,973.84,11.0,69,15.75,11.2,1000.25,127.8
2019-09-25 14:40,52.0005066666667,-97.1370416666667,14.8,19.2,315,973.84,11.1,68,15.81,11.2,1000.24,127.8
2019-09-25 14:50,51.99351,-97.0893033333333,17.2,23.6,325,973.77,10.8,73,15.86,10.9,1000.18,127.8
2019-09-25 15:00,51.9988933333333,-97.04616,18.8,24.3,323,973.82,10.7,73,15.90,9.8,1000.23,114.9
2019-09-25 15:10,51.9994733333333,-97.041395,21.9,25.7,300,973.17,10.7,74,15.92,1.1,999.56,114.9
2019-09-25 15:20,51.9992066666667,-97.04087,22.8,26.8,303,972.91,10.9,73,15.91,0.2,999.28,114.9
2019-09-25 15:30,51.9988433333333,-97.040395,23.9,28.6,310,972.95,11.0,72,15.91,0.2,999.21,114.9
2019-09-25 15:40,51.9943583333333,-97.0369433333333,22.1,28.8,304,973.24,10.7,75,15.91,1.8,999.35,114.9
2019-09-25 15:50,51.9657233333333,-97.01656,15.7,22.5,285,974.23,12.0,74,15.92,11.3,1000.22,114.9
2019-09-25 16:00,51.937055,-96.9955666666667,15.8,21.7,292,974.40,13.4,67,15.93,11.3,1000.41,122.8
2019-09-25 16:10,51.90866,-96.9734916666667,13.6,19.3,295,974.57,14.2,64,15.97,11.3,1000.76,122.8
2019-09-25 16:20,51.8795566666667,-96.953665,14.4,21.1,289,974.63,13.3,67,15.98,11.4,1000.93,122.8
2019-09-25 16:30,51.8507366666667,-96.931795,15.9,24.0,290,974.73,12.9,69,16.02,11.5,1001.06,122.8
2019-09-25 16:40,51.8218066666667,-96.91064,16.1,24.9,287,974.86,12.9,69,16.08,11.4,1001.20,122.8
2019-09-25 16:50,51.7931416666667,-96.8878116666667,15.9,22.9,277,974.97,11.9,73,16.11,11.5,1001.36,122.8
2019-09-25 17:00,51.7651816666667,-96.859035,11.7,19.2,275,975.12,11.8,71,16.19,11.9,1001.52,134.6
2019-09-25 17:10,51.736675,-96.829945,11.3,15.3,275,975.17,12.2,68,16.15,12.1,1001.55,134.6
2019-09-25 17:20,51.70726,-96.80487,11.1,17.5,268,975.20,11.7,68,16.10,12.0,1001.60,134.6
2019-09-25 17:30,51.678525,-96.7794216666667,11.7,17.2,279,975.29,12.4,66,16.22,11.8,1001.67,134.6
2019-09-25 17:40,51.6497783333333,-96.753175,12.8,19.8,283,975.46,13.0,67,16.20,11.9,1001.75,134.6
2019-09-25 17:50,51.6211816666667,-96.7282066666667,10.7,14.0,292,975.58,13.9,65,16.25,11.7,1001.78,134.6
2019-09-25 18:00,51.5996566666667,-96.7222033333333,14.4,23.4,299,975.56,12.1,78,16.18,7.9,1001.80,153.2
2019-09-25 18:10,51.599725,-96.722045,8.8,16.6,314,975.62,9.5,86,16.04,0.0,1002.02,153.2
2019-09-25 18:20,51.59941,-96.722015,8.9,17.9,319,975.62,9.9,81,16.02,0.1,1002.03,153.2
2019-09-25 18:30,51.5994216666667,-96.721985,10.0,18.2,323,975.60,10.3,76,16.01,0.0,1001.98,153.2
2019-09-25 18:40,51.5994233333333,-96.7219033333333,9.4,17.1,318,975.72,10.3,76,16.01,0.0,1002.15,153.2
2019-09-25 18:50,51.5994533333333,-96.7218283333333,8.3,15.3,313,975.86,10.2,75,16.02,0.0,1002.31,153.2
2019-09-25 19:00,51.5994533333333,-96.72188,9.1,16.6,311,975.80,10.8,68,16.02,0.0,1002.20,153.3
2019-09-25 19:10,51.5997,-96.7220116666667,12.7,22.8,313,975.85,11.1,64,16.03,0.1,1002.26,153.3
2019-09-25 19:20,51.5970183333333,-96.7188266666667,9.2,17.9,297,976.12,10.7,66,16.01,1.2,1002.52,153.3
2019-09-25 19:30,51.566005,-96.7064683333333,13.9,20.9,257,976.03,10.9,68,16.02,11.5,1002.39,153.3
2019-09-25 19:40,51.5352383333333,-96.6911533333333,12.9,22.4,269,976.22,11.2,68,16.19,11.6,1002.53,153.3
2019-09-25 19:50,51.5051583333333,-96.673465,10.7,15.3,269,976.37,11.5,69,16.21,11.5,1002.75,153.3
2019-09-25 20:00,51.4754666666667,-96.6562016666667,10.4,15.1,279,976.48,12.3,64,16.32,11.4,1002.95,156.4
2019-09-25 20:10,51.4458,-96.6391383333333,11.8,15.7,292,976.57,12.9,61,16.21,11.3,1003.01,156.4
2019-09-25 20:20,51.4161916666667,-96.6218533333333,11.0,17.3,287,976.64,12.6,62,16.11,11.3,1003.07,156.4
2019-09-25 20:30,51.3862833333333,-96.606395,11.5,18.1,281,976.77,11.7,64,16.10,11.3,1003.24,156.4
2019-09-25 20:40,51.3555566666667,-96.5955416666667,15.8,22.4,281,976.81,11.7,66,16.15,11.3,1003.28,156.4
2019-09-25 20:50,51.3255766666667,-96.6043466666667,15.9,23.8,277,976.83,10.9,66,16.22,11.0,1003.31,156.4
2019-09-25 21:00,51.29583,-96.6215283333333,12.2,17.1,264,976.92,10.9,63,16.28,11.4,1003.40,168.3
2019-09-25 21:10,51.2658833333333,-96.638225,16.1,23.1,258,976.85,11.3,61,16.35,11.4,1003.33,168.3
2019-09-25 21:20,51.235675,-96.62417,9.5,18.8,237,977.15,11.3,63,16.38,11.3,1003.63,168.3
2019-09-25 21:30,51.2058916666667,-96.6055516666667,8.3,11.6,225,977.26,11.3,64,16.38,11.5,1003.72,168.3
2019-09-25 21:40,51.1970966666667,-96.6164383333333,9.6,17.1,293,977.18,11.6,61,16.22,4.0,1003.61,168.3
2019-09-25 21:50,51.1971033333333,-96.6164983333333,11.5,18.2,315,977.18,11.4,59,16.16,0.0,1003.58,168.3
2019-09-25 22:00,51.1971016666667,-96.6164966666667,9.0,16.5,321,977.30,11.5,55,16.17,0.0,1003.67,170.7
2019-09-25 22:10,51.1971016666667,-96.6165083333333,8.6,16.0,323,977.36,12.0,53,16.16,0.0,1003.73,170.7
2019-09-25 22:20,51.1971016666667,-96.616505,9.1,16.2,320,977.45,11.8,55,16.16,0.0,1003.86,170.7
2019-09-25 22:30,51.1971,-96.6165,9.3,16.3,319,977.43,11.9,54,16.16,0.0,1003.85,170.7
2019-09-25 22:40,51.1971016666667,-96.6164983333333,8.4,14.0,311,977.56,11.8,53,16.20,0.0,1004.01,170.7
2019-09-25 22:50,51.1971,-96.6164966666667,8.1,14.3,326,977.64,11.7,54,16.25,0.0,1004.11,170.7
2019-09-25 23:00,51.1971,-96.616495,9.7,16.9,316,977.67,11.6,52,16.28,0.0,1004.13,174.9
2019-09-25 23:10,51.1970916666667,-96.616475,8.0,16.3,322,977.74,11.8,51,16.31,0.0,1004.19,174.9
2019-09-25 23:20,51.1970866666667,-96.616485,8.1,15.0,319,977.80,12.0,49,16.29,0.0,1004.24,174.9
2019-09-25 23:30,51.1970883333333,-96.61649,8.2,14.8,316,977.83,11.7,51,16.28,0.0,1004.27,174.9
